[[{"header":{"parameterUnit":"m.s-1","parameterCategory":1,"la1":30.2991,"la2":30.254,"lo1":-89.0895,"lo2":-89.0444,"dy":0.0017,"dx":0.0017,"nx":28,"ny":28,"refTime":"2025-11-16T09:00:00:Z","depth":0,"parameterNumber":2,"parameterNumberName":"U-component_of_WINDS"},"data":[0,0,0,0,0,0,0,0,0,0,0,0,0,0,0,0,0,0,0,0,0,0,0,0,0,0,0,0,0,0,0,0,0,0,0,0,0,0,0,0,0,0,0,0,0,0,0,0,0,0,0,0,0,0,0,0,0,0,-1.1998,-1.1999,0,-1.2056,-1.2057,-1.2057,-1.2056,-1.2056,-1.2055,-1.2054,-1.2116,-1.2118,-1.212,0,0,0,0,0,0,0,0,0,0,0,0,0,-1.1889,-1.1891,-1.1998,-1.1999,-1.2,-1.2056,-1.2057,-1.2058,-1.2057,-1.2056,-1.2055,-1.2054,-1.2115,-1.2118,-1.212,0,0,0,0,0,0,0,0,0,0,0,0,0,-1.1941,-1.1892,-1.1998,-1.2006,-1.2007,-1.2056,-1.2057,-1.2058,-1.2057,-1.2056,-1.2054,-1.2053,-1.2114,-1.2117,-1.2121,-1.2166,0,0,-1.2132,-1.2133,0,0,0,0,0,0,0,0,-1.1938,-1.1945,-1.2004,-1.2005,-1.2007,-1.2048,-1.2041,-1.2094,-1.2057,-1.2038,-1.2054,-1.2053,-1.2094,-1.2099,-1.2113,-1.2169,-1.2172,-1.2132,-1.2134,-1.2136,-1.2137,0,0,0,0,0,0,0,-1.1934,-1.1942,-1.2021,-1.2005,-1.2007,-1.2007,-1.2013,-1.2051,-1.2072,-1.204,-1.204,-1.2046,-1.2095,-1.2109,-1.2114,-1.2173,-1.2132,-1.2135,-1.2137,-1.2139,-1.2271,-1.2272,0,0,0,0,0,0,-1.1929,-1.1939,-1.2019,-1.2023,-1.1969,-1.201,-1.2017,-1.2036,-1.2072,-1.2076,-1.2047,-1.2046,-1.2104,-1.211,-1.2116,-1.2172,-1.2136,-1.2139,-1.2141,-1.2269,-1.2271,-1.2272,0,0,0,0,0,0,-1.1926,-1.1936,-1.2017,-1.1981,-1.1991,-1.2013,-1.2035,-1.2038,-1.2052,-1.2077,-1.2081,-1.2058,-1.2103,-1.2111,-1.2154,-1.2175,-1.2141,-1.2144,-1.2268,-1.227,-1.2272,-1.2285,0,0,0,0,0,0,-1.1923,-1.1935,-1.1952,-1.1981,-1.1993,-1.2053,-1.2036,-1.204,-1.2058,-1.2057,-1.2089,-1.2093,-1.2103,-1.2149,-1.2157,-1.2179,-1.2147,-1.2266,-1.2268,-1.2271,-1.2283,-1.2287,-1.2291,0,0,0,0,0,-1.1919,-1.1954,-1.1953,-1.1962,-1.2015,-1.2054,-1.2061,-1.2071,-1.206,-1.2077,-1.2094,-1.2092,-1.2171,-1.2153,-1.2163,-1.2186,-1.2265,-1.2268,-1.2271,-1.2281,-1.2286,-1.2291,0,0,0,0,0,0,-1.1926,-1.1958,-1.1957,-1.2002,-1.2025,-1.2054,-1.2076,-1.2076,-1.2104,-1.2102,-1.2114,-1.2122,-1.2164,-1.2179,-1.2159,-1.2232,-1.2216,-1.2222,-1.2221,-1.2226,-1.223,-1.2226,-1.215,0,0,0,0,0,-1.1933,-1.1962,-1.1988,-1.2025,-1.2036,-1.2054,-1.2072,-1.2078,-1.2103,-1.2113,-1.2132,-1.2157,-1.2188,-1.2208,-1.2237,-1.2285,-1.2292,-1.2305,-1.231,-1.2313,-1.2317,-1.2344,-1.2351,-1.2282,-1.2282,-1.2282,0,0,-1.1947,-1.1968,-1.1985,-1.2027,-1.2045,-1.2075,-1.2063,-1.2095,-1.2118,-1.2118,-1.2159,-1.2174,-1.2203,-1.2249,-1.227,-1.2263,-1.2338,-1.2317,-1.2319,-1.2322,-1.2348,-1.2355,-1.236,-1.2285,-1.2284,-1.2284,0,0,-1.1989,-1.2007,-1.204,-1.2059,-1.2088,-1.2099,-1.2107,-1.2136,-1.2146,-1.2188,-1.2189,-1.2216,-1.2269,-1.2289,-1.2307,-1.2357,-1.2356,-1.2366,-1.2387,-1.2414,-1.2419,-1.2424,-1.2442,-1.2449,-1.237,-1.237,-1.237,0,-1.2003,-1.2047,-1.2057,-1.2089,-1.2108,-1.2109,-1.2143,-1.2162,-1.2199,-1.2212,-1.2203,-1.2269,-1.2289,-1.2339,-1.2351,-1.2365,-1.2375,-1.2362,-1.2417,-1.2422,-1.2427,-1.2445,-1.2451,-1.2371,-1.2371,-1.2371,-1.2371,0,-1.2064,-1.2095,-1.2118,-1.2153,-1.2175,-1.2208,-1.2223,-1.2244,-1.2248,-1.2261,-1.2304,-1.2327,-1.2362,-1.2374,-1.2379,-1.2426,-1.2421,-1.2415,-1.2399,-1.2434,-1.2451,-1.2458,-1.2373,-1.2372,-1.2372,-1.2372,0,0,-1.2111,-1.2151,-1.216,-1.2176,-1.2208,-1.2232,-1.2266,-1.2299,-1.2317,-1.2343,-1.2372,-1.2416,-1.2411,-1.2431,-1.2438,-1.2461,-1.2499,-1.2452,-1.2453,-1.246,-1.2553,-1.2558,-1.2566,-1.2499,-1.2501,-1.2502,-1.2551,0,-1.2156,-1.2215,-1.2225,-1.2277,-1.2306,-1.2308,-1.2337,-1.236,-1.2374,-1.2401,-1.2416,-1.2447,-1.2438,-1.245,-1.2473,-1.249,-1.2518,-1.2486,-1.2527,-1.2529,-1.252,-1.2574,-1.2579,-1.2625,-1.2558,-1.2559,-1.256,0,-1.2216,-1.2243,-1.2298,-1.2326,-1.2339,-1.2365,-1.2396,-1.2422,-1.2449,-1.2457,-1.2479,-1.2484,-1.252,-1.2503,-1.2553,-1.2531,-1.2549,-1.256,-1.2562,-1.2566,-1.2546,-1.2581,-1.2639,-1.2646,-1.257,-1.2569,-1.2568,0,-1.2246,-1.2295,-1.2335,-1.2348,-1.2383,-1.2401,-1.2416,-1.2442,-1.2461,-1.2489,-1.2502,-1.2534,-1.2552,-1.2577,-1.259,-1.2577,-1.264,-1.2624,-1.2649,-1.2648,-1.2662,-1.2661,-1.2725,-1.2673,-1.2673,-1.2672,-1.2672,0,-1.2295,-1.2328,-1.2348,-1.2373,-1.241,-1.2422,-1.2459,-1.2474,-1.2497,-1.2525,-1.2529,-1.2555,-1.2571,-1.26,-1.2611,-1.2651,-1.2659,-1.2668,-1.267,-1.2667,-1.2666,-1.2679,-1.2676,-1.2674,-1.2674,-1.2674,-1.2673,0,-1.2334,-1.2349,-1.2392,-1.242,-1.2429,-1.2455,-1.248,-1.2504,-1.2518,-1.2553,-1.2562,-1.2583,-1.2617,-1.2633,-1.2676,-1.2683,-1.2729,-1.2729,-1.272,-1.2721,-1.2745,-1.2742,-1.2819,-1.283,-1.2771,-1.2771,-1.2772,0,-1.2365,-1.239,-1.2422,-1.244,-1.2456,-1.2486,-1.2506,-1.2518,-1.2539,-1.2572,-1.2592,-1.2627,-1.2655,-1.2709,-1.2729,-1.2762,-1.2763,-1.2788,-1.2768,-1.2765,-1.2764,-1.2763,-1.2766,-1.2792,-1.2792,-1.2793,-1.2793,0,-1.2418,-1.2424,-1.2452,-1.2483,-1.2506,-1.2531,-1.2556,-1.2571,-1.2588,-1.2611,-1.2646,-1.2667,-1.2711,-1.2745,-1.2779,-1.2796,-1.2798,-1.2799,-1.2807,-1.2804,-1.2798,-1.2802,-1.273,-1.2797,-1.2797,-1.2796,-1.2796,-1.2796,-1.2454,-1.2477,-1.2503,-1.2534,-1.2554,-1.2577,-1.2601,-1.2617,-1.2646,-1.2682,-1.2688,-1.2725,-1.2752,-1.2798,-1.2816,-1.2846,-1.284,-1.2851,-1.2854,-1.2857,-1.2858,-1.2793,-1.2852,-1.2852,-1.2852,-1.2852,-1.2852,0,-1.2507,-1.2524,-1.2553,-1.2587,-1.2612,-1.261,-1.2638,-1.2659,-1.2692,-1.2716,-1.2744,-1.2784,-1.2817,-1.284,-1.2874,-1.2894,-1.2896,-1.2902,-1.2901,-1.2905,-1.2861,-1.2851,-1.29,-1.29,-1.29,-1.29,-1.29,-1.29,-1.2538,-1.2577,-1.2587,-1.2636,-1.2653,-1.2689,-1.2705,-1.2726,-1.2746,-1.2791,-1.2818,-1.2832,-1.2857,-1.2893,-1.2923,-1.2929,-1.2942,-1.2949,-1.2955,-1.2913,-1.2908,-1.2903,-1.2894,-1.2952,-1.2952,-1.2997,-1.2997,-1.2997]},{"header":{"parameterUnit":"m.s-1","parameterCategory":1,"la1":30.2991,"la2":30.254,"lo1":-89.0895,"lo2":-89.0444,"dy":0.0017,"dx":0.0017,"nx":28,"ny":28,"refTime":"2025-11-16T09:00:00:Z","depth":0,"parameterNumber":3,"parameterNumberName":"V-component_of_WINDS"},"data":[0,0,0,0,0,0,0,0,0,0,0,0,0,0,0,0,0,0,0,0,0,0,0,0,0,0,0,0,0,0,0,0,0,0,0,0,0,0,0,0,0,0,0,0,0,0,0,0,0,0,0,0,0,0,0,0,0,0,0.1877,0.1877,0,0.1862,0.1862,0.1861,0.187,0.1871,0.1871,0.1872,0.1853,0.1852,0.1851,0,0,0,0,0,0,0,0,0,0,0,0,0,0.1911,0.191,0.1877,0.1877,0.1877,0.1862,0.1862,0.1861,0.187,0.1871,0.1871,0.1872,0.1853,0.1852,0.1851,0,0,0,0,0,0,0,0,0,0,0,0,0,0.1896,0.191,0.1877,0.1879,0.1879,0.1862,0.1862,0.1861,0.187,0.1871,0.1871,0.1872,0.1854,0.1852,0.1851,0.1829,0,0,0.1847,0.1846,0,0,0,0,0,0,0,0,0.1897,0.1895,0.1879,0.1879,0.1879,0.1869,0.1867,0.1851,0.187,0.1874,0.1872,0.1872,0.1857,0.1856,0.1851,0.1829,0.1828,0.1847,0.1846,0.1845,0.1845,0,0,0,0,0,0,0,0.1898,0.1895,0.1871,0.1879,0.1879,0.188,0.1879,0.1864,0.1862,0.1873,0.1874,0.1872,0.1858,0.1853,0.1851,0.1828,0.1847,0.1846,0.1845,0.1844,0.1786,0.1785,0,0,0,0,0,0,0.1899,0.1896,0.1871,0.1871,0.189,0.1879,0.1878,0.1871,0.1862,0.1861,0.1872,0.1873,0.1855,0.1853,0.185,0.1824,0.1845,0.1844,0.1843,0.1786,0.1786,0.1785,0,0,0,0,0,0,0.19,0.1897,0.1872,0.1884,0.1881,0.1878,0.1871,0.1871,0.1866,0.1861,0.186,0.1867,0.1855,0.1852,0.1835,0.1824,0.1843,0.1842,0.1787,0.1786,0.1785,0.1772,0,0,0,0,0,0,0.1901,0.1897,0.189,0.1883,0.188,0.1857,0.187,0.187,0.1864,0.1865,0.1857,0.1856,0.1855,0.1837,0.1833,0.1822,0.1841,0.1788,0.1787,0.1786,0.1773,0.1771,0.1768,0,0,0,0,0,0.1902,0.1886,0.1889,0.1886,0.1871,0.1857,0.1855,0.1856,0.1863,0.1855,0.1852,0.1856,0.1826,0.1835,0.1831,0.1819,0.1789,0.1787,0.1786,0.1775,0.1771,0.1768,0,0,0,0,0,0,0.189,0.1885,0.1889,0.187,0.1864,0.1858,0.1848,0.1852,0.1843,0.1844,0.1845,0.1842,0.1824,0.182,0.183,0.1798,0.1808,0.1806,0.1801,0.1798,0.1795,0.1796,0.184,0,0,0,0,0,0.1885,0.1875,0.1871,0.1856,0.1852,0.1851,0.1845,0.1846,0.1839,0.1836,0.1832,0.1824,0.1813,0.1805,0.1795,0.1773,0.1771,0.1763,0.1761,0.1759,0.1756,0.1744,0.174,0.1779,0.1779,0.1779,0,0,0.1875,0.1871,0.1865,0.1853,0.1848,0.1837,0.1848,0.1836,0.1828,0.1834,0.1817,0.1814,0.1805,0.1785,0.1776,0.1781,0.1745,0.1756,0.1755,0.1753,0.1742,0.1738,0.1735,0.1778,0.1778,0.1779,0,0,0.1851,0.1847,0.1834,0.1829,0.1822,0.1821,0.1818,0.1812,0.181,0.1793,0.1798,0.1787,0.1768,0.1762,0.1756,0.1729,0.1733,0.1726,0.1712,0.17,0.1697,0.1694,0.1684,0.1681,0.1724,0.1724,0.1724,0,0.1839,0.1823,0.1826,0.1813,0.1808,0.1814,0.18,0.1795,0.1784,0.178,0.1786,0.1762,0.1756,0.1735,0.1729,0.1724,0.1719,0.1727,0.1698,0.1695,0.1692,0.1683,0.1679,0.1723,0.1723,0.1723,0.1723,0,0.1809,0.1798,0.1787,0.1778,0.1771,0.1758,0.1757,0.175,0.1752,0.175,0.1733,0.1727,0.1715,0.171,0.1711,0.1689,0.1692,0.1698,0.1708,0.1688,0.1679,0.1675,0.1722,0.1722,0.1722,0.1722,0,0,0.1776,0.1769,0.1765,0.176,0.1753,0.1744,0.1731,0.172,0.1714,0.1706,0.1694,0.1678,0.1684,0.1677,0.1678,0.1667,0.1646,0.1674,0.1674,0.1669,0.162,0.1615,0.1611,0.1649,0.1648,0.1647,0.162,0,0.1751,0.1728,0.173,0.1709,0.1698,0.1704,0.1692,0.1686,0.1684,0.1674,0.1672,0.166,0.1668,0.1664,0.1654,0.1651,0.1636,0.1653,0.1636,0.1636,0.1638,0.1606,0.1601,0.1576,0.1617,0.1616,0.1616,0,0.1718,0.1711,0.1688,0.1683,0.1679,0.1668,0.1658,0.1649,0.1642,0.1641,0.1634,0.1637,0.1622,0.1633,0.1613,0.1624,0.1618,0.1615,0.1614,0.1612,0.1624,0.1603,0.1568,0.1564,0.161,0.1611,0.1611,0,0.1696,0.168,0.1665,0.1661,0.1654,0.1647,0.1643,0.1637,0.1631,0.1622,0.1617,0.1607,0.1601,0.1592,0.1591,0.1599,0.157,0.1581,0.1568,0.1568,0.1561,0.1561,0.1524,0.1558,0.1558,0.1558,0.1558,0,0.1667,0.1653,0.1654,0.1645,0.1629,0.1631,0.1615,0.1612,0.1607,0.1596,0.16,0.159,0.159,0.1579,0.1578,0.1561,0.1558,0.1556,0.1556,0.1555,0.1555,0.155,0.1552,0.1557,0.1557,0.1557,0.1557,0,0.1639,0.164,0.1623,0.1619,0.1617,0.1605,0.1601,0.1591,0.159,0.1576,0.1573,0.1571,0.1558,0.1557,0.1542,0.1541,0.152,0.1522,0.1522,0.1523,0.1509,0.151,0.1467,0.1461,0.1499,0.1499,0.1499,0,0.1621,0.161,0.1605,0.1598,0.1595,0.1584,0.1578,0.158,0.1573,0.1564,0.1555,0.1543,0.1533,0.1513,0.1509,0.1497,0.1499,0.1484,0.1497,0.1496,0.1497,0.1498,0.1496,0.1481,0.1481,0.1481,0.148,0,0.1587,0.1588,0.1579,0.157,0.1563,0.1556,0.1549,0.1543,0.1544,0.1536,0.1523,0.1516,0.1501,0.1489,0.1478,0.1473,0.1476,0.1477,0.1473,0.1472,0.1472,0.1471,0.1515,0.1477,0.1478,0.1478,0.1478,0.1478,0.1563,0.1553,0.1548,0.1538,0.1534,0.1527,0.1518,0.1516,0.1506,0.1495,0.1496,0.1482,0.1475,0.146,0.1455,0.1444,0.1448,0.1443,0.1441,0.144,0.1438,0.1475,0.1442,0.1442,0.1442,0.1442,0.1442,0,0.1529,0.1526,0.1517,0.1508,0.15,0.1505,0.1498,0.1491,0.1479,0.1472,0.1463,0.1449,0.1437,0.1432,0.142,0.1412,0.1413,0.1409,0.1409,0.1408,0.1435,0.1439,0.1408,0.1408,0.1408,0.1408,0.1408,0.1408,0.151,0.1495,0.1495,0.1477,0.1474,0.1462,0.1457,0.1451,0.1446,0.143,0.1421,0.1418,0.1412,0.14,0.1389,0.1388,0.1383,0.1378,0.1377,0.1402,0.1406,0.1409,0.1413,0.1377,0.1377,0.1351,0.135,0.135]}]]